Location: Unspecified
(49.2170°N, 0.0000°E)
Time: 08:36:13
(UTC+00:00)

Vanguard 3 - Pass Details

Date: 26 June 2019
Orbit: 507 x 3264 km, 33.4° (Epoch: 21 July)

Event Time Altitude Azimuth Distance (km) Brightness Sun altitude
Rises 13:42:13 0° 260° (W) 5,699 11.9 57.6°
Reaches altitude 10° 13:47:30 10° 249° (WSW) 4,148 11.4 57.0°
Maximum altitude 13:54:51 23° 203° (SSW) 2,477 10.6 56.1°
Drops below altitude 10° 13:59:54 10° 154° (SSE) 2,717 10.1 55.4°
Sets 14:02:32 0° 138° (SE) 3,361 10.3 55.1°
